Simultaneous Nadir Overpasses (SNOs) Predictions

Prediction of SNOs between AQUA and METOP-C Satellite Orbit:

Table of predicted SNOs for the next 14.0 days since TLE Epoch: 10/19/2024
Index Date (AQUA) Time (AQUA) Lat,Lon (AQUA) SZA (AQUA ) Date (METOP-C) Time (METOP-C) Lat,Lon (METOP-C) SZA (METOP-C ) Distance(km) Time Diff (sec)
1 10/21/2024 07:59:46 -75.80,-120.09 93.35 10/21/2024 07:59:35 -75.81,-120.06 93.33 1.34 11
2 10/21/2024 08:49:08 75.84, 47.43 86.72 10/21/2024 08:50:14 75.85, 47.39 86.72 0.98 66
3 10/23/2024 21:40:13 75.80,-145.16 87.56 10/23/2024 21:39:12 75.79,-145.03 87.55 3.63 61
4 10/23/2024 22:29:33 -75.81, 22.48 92.42 10/23/2024 22:29:53 -75.83, 22.43 92.40 2.58 20
5 10/26/2024 12:09:55 75.82, -2.58 88.48 10/26/2024 12:09:29 75.82, -2.50 88.48 2.32 26
6 10/26/2024 12:59:16 -75.88, 164.91 91.46 10/26/2024 13:00:10 -75.87, 164.98 91.46 2.19 54
7 10/29/2024 01:50:09 -75.77, -27.45 90.71 10/29/2024 01:49:06 -75.80, -27.46 90.69 3.17 63
8 10/29/2024 02:39:31 75.84, 139.99 89.38 10/29/2024 02:39:45 75.82, 139.94 89.35 3.15 14
9 10/31/2024 16:19:42 -75.84, 115.01 89.79 10/31/2024 16:19:22 -75.82, 115.04 89.81 2.57 20



Historial Predications of SNOs between AQUA and METOP-C
